GW0281 Weather Reports


Display with metric or nautical units.
time (UTC)temp
F
wind
direction
speed
MPH
gust
MPH
rain 1hr
in
rain 24hr
in
rain mn
in
humidity
%
barometer
mb
20260906152459 76 84 5.0 10.0 0.00 0.00 0.00 85 1019.9
20260906151958 75 59 0.0 8.0 0.00 0.00 0.00 87 1019.8
20260906151454 75 141 3.0 8.0 0.00 0.00 0.00 86 1019.9
20260906150950 75 118 0.0 8.0 0.00 0.00 0.00 87 1019.7
20260906150445 75 137 5.0 7.0 0.00 0.00 0.00 88 1019.6
20260906145944 73 70 2.0 5.0 0.00 0.00 0.00 90 1019.8
20260906145444 75 125 2.0 9.0 0.00 0.00 0.00 88 1019.7
20260906144938 73 81 3.0 9.0 0.00 0.00 0.00 91 1019.4
20260906144433 72 120 3.0 6.0 0.00 0.00 0.00 92 1019.4
20260906143929 72 107 3.0 8.0 0.00 0.00 0.00 93 1019.6
20260906143424 72 83 7.0 9.0 0.00 0.00 0.00 92 1019.5
20260906142920 72 99 2.0 6.0 0.00 0.00 0.00 93 1019.4
20260906142419 71 113 2.0 10.0 0.00 0.00 0.00 94 1019.2
20260906141914 71 112 5.0 10.0 0.00 0.00 0.00 94 1019.3
20260906141414 71 65 4.0 9.0 0.00 0.00 0.00 94 1019.4
20260906140908 70 91 2.0 11.0 0.00 0.00 0.00 95 1019.5
20260906140403 70 77 8.0 9.0 0.00 0.00 0.00 95 1019.3
20260906135900 70 95 7.0 9.0 0.00 0.00 0.00 95 1019.4
20260906135354 70 86 7.0 8.0 0.00 0.00 0.00 95 1019.3
20260906134850 70 44 2.0 6.0 0.00 0.00 0.00 96 1019.5
20260906134345 70 80 4.0 7.0 0.00 0.00 0.00 96 1019.1
20260906133841 70 77 4.0 8.0 0.00 0.00 0.00 96 1019.3
20260906133336 69 273 0.0 7.0 0.00 0.00 0.00 97 1019.0
20260906132831 69 70 2.0 11.0 0.00 0.00 0.00 97 1019.3
20260906132327 69 85 3.0 9.0 0.00 0.00 0.00 97 1019.1
20260906131822 69 82 9.0 13.0 0.00 0.00 0.00 97 1018.9
20260906131317 69 90 5.0 9.0 0.00 0.00 0.00 98 1019.1
20260906130813 69 69 3.0 6.0 0.00 0.00 0.00 98 1019.2
20260906130313 69 78 5.0 7.0 0.00 0.00 0.00 98 1019.2
20260906125812 68 106 3.0 9.0 0.00 0.00 0.00 99 1019.0
20260906125309 68 85 0.0 5.0 0.00 0.00 0.00 99 1019.1
20260906124804 68 93 1.0 7.0 0.00 0.00 0.00 99 1019.0
20260906124300 68 83 6.0 7.0 0.00 0.00 0.00 99 1019.3
20260906123759 68 73 2.0 7.0 0.00 0.00 0.00 99 1019.3
20260906123254 67 82 4.0 6.0 0.00 0.00 0.00 99 1019.0
20260906122754 67 352 0.0 5.0 0.00 0.00 0.00 99 1019.1
20260906122249 67 81 3.0 6.0 0.00 0.00 0.00 99 1019.3
20260906121745 67 68 1.0 4.0 0.00 0.00 0.00 99 1019.0
20260906121241 67 65 2.0 3.0 0.00 0.00 0.00 99 1019.1
20260906120737 66 54 3.0 4.0 0.00 0.00 0.00 99 1018.9
20260906120234 66 57 2.0 6.0 0.00 0.00 0.00 99 1018.9
20260906115729 66 47 3.0 6.0 0.00 0.00 0.00 99 1018.9
20260906115224 66 99 5.0 6.0 0.00 0.00 0.00 99 1019.0
20260906114723 67 79 2.0 5.0 0.00 0.00 0.00 99 1018.7
20260906114218 66 73 3.0 5.0 0.00 0.00 0.00 99 1018.7
20260906113713 66 48 2.0 6.0 0.00 0.00 0.00 99 1018.6
20260906113212 66 48 2.0 5.0 0.00 0.00 0.00 99 1018.3
20260906112707 66 78 2.0 5.0 0.00 0.00 0.00 99 1018.3
20260906112204 66 76 4.0 6.0 0.00 0.00 0.00 99 1018.2
20260906111703 67 23 1.0 8.0 0.00 0.00 0.00 99 1018.1
20260906111158 67 27 2.0 6.0 0.00 0.00 0.00 99 1018.0
20260906110653 67 66 4.0 6.0 0.00 0.00 0.00 99 1017.9
20260906110148 67 12 0.0 7.0 0.00 0.00 0.00 99 1018.0
20260906105642 67 105 2.0 7.0 0.00 0.00 0.00 99 1018.0
20260906105138 67 79 2.0 7.0 0.00 0.00 0.00 99 1017.8
20260906104638 67 78 4.0 5.0 0.00 0.00 0.00 99 1017.7
20260906104137 67 83 2.0 7.0 0.00 0.00 0.00 99 1017.7
20260906103635 67 48 2.0 8.0 0.00 0.00 0.00 99 1017.5
20260906103130 67 352 2.0 6.0 0.00 0.00 0.00 99 1017.5
20260906102626 67 66 4.0 5.0 0.00 0.00 0.00 99 1017.6
20260906102120 68 92 0.0 10.0 0.00 0.00 0.00 99 1017.3
20260906101615 68 116 1.0 9.0 0.00 0.00 0.00 99 1017.2
20260906101115 68 69 5.0 11.0 0.00 0.00 0.00 99 1017.2
20260906100610 68 91 4.0 10.0 0.00 0.00 0.00 99 1017.0
20260906100105 68 59 4.0 7.0 0.00 0.00 0.00 99 1017.3
20260906095604 68 99 3.0 7.0 0.00 0.00 0.00 99 1017.2
20260906095059 68 95 3.0 7.0 0.00 0.00 0.00 99 1017.1
20260906094558 68 93 4.0 7.0 0.00 0.00 0.00 99 1017.1
20260906094054 68 69 4.0 9.0 0.00 0.00 0.00 99 1017.2
20260906093550 68 83 4.0 9.0 0.00 0.00 0.00 99 1017.2
20260906093045 68 86 2.0 7.0 0.00 0.00 0.00 99 1017.2
20260906092540 68 71 4.0 6.0 0.00 0.00 0.00 99 1017.2
20260906092036 68 48 1.0 5.0 0.00 0.00 0.00 99 1017.2
20260906091531 68 96 2.0 5.0 0.00 0.00 0.00 99 1017.4
20260906091027 68 103 3.0 5.0 0.00 0.00 0.00 99 1017.4
20260906090522 68 80 1.0 5.0 0.00 0.00 0.00 99 1017.3
20260906090017 68 62 0.0 3.0 0.00 0.00 0.00 99 1017.4
20260906085516 68 47 1.0 3.0 0.00 0.00 0.00 99 1017.3
20260906085015 68 62 3.0 6.0 0.00 0.00 0.00 99 1017.2
20260906084510 68 97 1.0 5.0 0.00 0.00 0.00 99 1017.3
20260906084009 69 65 2.0 5.0 0.00 0.00 0.00 99 1017.4
20260906083505 69 89 2.0 5.0 0.00 0.00 0.00 99 1017.4
20260906083004 69 73 3.0 5.0 0.00 0.00 0.00 99 1017.6
20260906082500 69 52 1.0 5.0 0.00 0.00 0.00 99 1017.2
20260906081955 69 55 1.0 3.0 0.00 0.00 0.00 99 1017.5
20260906081450 69 89 0.0 6.0 0.00 0.00 0.00 99 1017.5
20260906080946 69 22 2.0 5.0 0.00 0.00 0.00 99 1017.4
20260906080442 69 61 3.0 6.0 0.00 0.00 0.00 99 1017.3
20260906075937 69 86 2.0 5.0 0.00 0.00 0.00 99 1017.3
20260906075432 69 88 0.0 4.0 0.00 0.00 0.00 98 1017.2
20260906074927 69 81 4.0 6.0 0.00 0.00 0.00 98 1017.3
20260906074427 69 61 4.0 8.0 0.00 0.00 0.00 98 1017.2
20260906073926 69 79 3.0 4.0 0.00 0.00 0.00 98 1017.3
20260906073421 69 84 0.0 5.0 0.00 0.00 0.00 97 1017.3
20260906072917 70 77 3.0 8.0 0.00 0.00 0.00 97 1017.2
20260906072412 70 24 2.0 9.0 0.00 0.00 0.00 97 1017.3
20260906071908 70 71 2.0 5.0 0.00 0.00 0.00 97 1017.6
20260906071403 70 57 3.0 8.0 0.00 0.00 0.00 96 1017.5
20260906070859 71 65 4.0 11.0 0.00 0.00 0.00 96 1017.3
20260906070355 71 31 3.0 10.0 0.00 0.00 0.00 95 1017.6
20260906065850 71 81 3.0 9.0 0.00 0.00 0.00 95 1017.7
20260906065344 71 71 3.0 7.0 0.00 0.00 0.00 95 1017.8
20260906064840 71 84 5.0 9.0 0.00 0.00 0.00 95 1017.7
20260906064336 71 83 5.0 11.0 0.00 0.00 0.00 95 1017.8
20260906063831 71 84 5.0 9.0 0.00 0.00 0.00 96 1017.5
20260906063326 71 79 10.0 11.0 0.00 0.00 0.00 96 1017.6
20260906062821 71 84 4.0 9.0 0.00 0.00 0.00 96 1017.4
20260906062320 72 90 4.0 9.0 0.00 0.00 0.00 96 1017.3
20260906061816 72 68 4.0 11.0 0.00 0.00 0.00 96 1017.3
20260906061312 72 99 3.0 9.0 0.00 0.00 0.00 96 1017.1
20260906060807 72 93 3.0 9.0 0.00 0.00 0.00 95 1017.4
20260906060305 72 75 4.0 13.0 0.00 0.00 0.00 95 1017.7
20260906055800 72 53 3.0 13.0 0.00 0.00 0.00 95 1017.3
20260906055255 72 66 6.0 20.0 0.00 0.00 0.00 96 1017.6
20260906054750 72 77 2.0 5.0 0.00 0.00 0.00 97 1017.7
20260906054246 73 67 3.0 11.0 0.00 0.00 0.00 96 1017.7
20260906053743 73 85 3.0 7.0 0.00 0.00 0.00 96 1017.6
20260906053238 73 89 5.0 9.0 0.00 0.00 0.00 96 1017.5
20260906052733 73 94 3.0 7.0 0.00 0.00 0.00 96 1017.5
20260906052229 73 101 2.0 7.0 0.00 0.00 0.00 96 1017.4
20260906051726 73 80 5.0 11.0 0.00 0.00 0.00 96 1017.4
20260906051225 73 93 2.0 7.0 0.00 0.00 0.00 96 1017.4
20260906050720 73 70 4.0 7.0 0.00 0.00 0.00 95 1017.2
20260906050216 73 89 7.0 9.0 0.00 0.00 0.00 95 1017.4
20260906045714 73 104 3.0 7.0 0.00 0.00 0.00 95 1017.3
20260906045209 74 95 4.0 5.0 0.00 0.00 0.00 94 1017.4
20260906044705 74 38 0.0 4.0 0.00 0.00 0.00 94 1017.4
20260906044200 74 49 0.0 4.0 0.00 0.00 0.00 93 1017.5
20260906043656 74 178 0.0 5.0 0.00 0.00 0.00 93 1017.4
20260906043152 74 48 3.0 5.0 0.00 0.00 0.00 93 1017.3
20260906042651 74 16 1.0 5.0 0.00 0.00 0.00 92 1016.9
20260906042145 75 35 3.0 8.0 0.00 0.00 0.00 92 1017.0
20260906041641 75 51 3.0 5.0 0.00 0.00 0.00 92 1016.7
20260906041136 75 61 4.0 8.0 0.00 0.00 0.00 92 1016.6
20260906040631 75 14 2.0 8.0 0.00 0.00 0.00 92 1016.7
20260906040127 75 0 0.0 8.0 0.00 0.00 0.00 92 1016.6
20260906035622 75 60 2.0 5.0 0.00 0.00 0.00 92 1016.5
20260906035117 75 44 1.0 3.0 0.00 0.00 0.00 92 1016.7
20260906034612 75 4 3.0 4.0 0.00 0.00 0.00 92 1016.5
20260906034107 75 69 1.0 5.0 0.00 0.00 0.00 92 1016.2
20260906033602 74 58 2.0 4.0 0.00 0.00 0.00 93 1016.3
20260906033057 74 0 0.0 3.0 0.00 0.00 0.00 93 1016.4
20260906032554 74 25 0.0 1.0 0.00 0.00 0.00 93 1016.3
20260906032053 74 73 0.0 2.0 0.00 0.00 0.00 93 1016.4
20260906031549 74 0 0.0 2.0 0.00 0.00 0.00 94 1016.3
20260906031045 74 343 0.0 2.0 0.00 0.00 0.00 94 1016.3
20260906030544 74 354 0.0 2.0 0.00 0.00 0.00 94 1016.0
20260906030043 73 334 0.0 2.0 0.00 0.00 0.00 94 1016.2
20260906025538 73 315 0.0 2.0 0.00 0.00 0.00 94 1016.1
20260906025036 73 48 0.0 2.0 0.00 0.00 0.00 94 1016.0
20260906024532 73 304 0.0 1.0 0.00 0.00 0.00 94 1015.9
20260906024031 73 62 0.0 0.0 0.00 0.00 0.00 94 1016.0
20260906023528 73 63 0.0 2.0 0.00 0.00 0.00 94 1015.9
20260906023023 73 180 0.0 0.0 0.00 0.00 0.00 94 1016.1
20260906022518 73 122 2.0 3.0 0.00 0.00 0.00 94 1015.8
20260906022013 74 52 0.0 3.0 0.00 0.00 0.00 93 1015.8
20260906021508 74 99 0.0 4.0 0.00 0.00 0.00 93 1015.5
20260906021002 74 73 3.0 5.0 0.00 0.00 0.00 93 1015.5
20260906020456 74 75 2.0 3.0 0.00 0.00 0.00 93 1015.5
20260906015955 74 96 2.0 3.0 0.00 0.00 0.00 92 1015.5
20260906015450 74 66 5.0 7.0 0.00 0.00 0.00 92 1015.6
20260906014950 74 94 4.0 6.0 0.00 0.00 0.00 92 1015.4
20260906014449 74 52 2.0 5.0 0.00 0.00 0.00 92 1015.3
20260906013946 74 85 0.0 7.0 0.00 0.00 0.00 92 1015.2
20260906013441 75 113 1.0 5.0 0.00 0.00 0.00 91 1015.2
20260906012936 75 87 3.0 7.0 0.00 0.00 0.00 91 1015.1
20260906012431 75 44 3.0 5.0 0.00 0.00 0.00 91 1015.0
20260906011930 75 84 4.0 5.0 0.00 0.00 0.00 91 1015.1
20260906011426 75 102 1.0 6.0 0.00 0.00 0.00 91 1015.1
20260906010921 75 39 2.0 7.0 0.00 0.00 0.00 90 1015.1
20260906010417 76 57 3.0 8.0 0.00 0.00 0.00 90 1015.1
20260906005913 76 43 5.0 6.0 0.00 0.00 0.00 90 1015.4
20260906005412 76 48 3.0 8.0 0.00 0.00 0.00 91 1015.3
20260906004910 76 81 3.0 9.0 0.00 0.00 0.00 90 1015.2
20260906004405 77 84 5.0 9.0 0.00 0.00 0.00 89 1015.2
20260906003900 77 64 5.0 8.0 0.00 0.00 0.00 88 1015.3
20260906003356 78 38 7.0 7.0 0.00 0.00 0.00 87 1015.3
20260906002851 78 27 5.0 9.0 0.00 0.00 0.00 86 1015.4
20260906002350 78 71 7.0 8.0 0.00 0.00 0.00 85 1015.3
20260906001846 79 62 5.0 10.0 0.00 0.00 0.00 85 1015.1
20260906001342 79 62 3.0 9.0 0.00 0.00 0.00 84 1015.3
20260906000836 80 99 3.0 9.0 0.00 0.00 0.00 84 1015.5
20260906000333 80 31 2.0 8.0 0.00 0.00 0.00 84 1015.5
20260905235831 80 40 2.0 6.0 0.00 0.00 0.00 84 1015.2
20260905235326 81 75 4.0 10.0 0.00 0.00 0.00 84 1015.4
20260905234821 81 46 5.0 13.0 0.00 0.00 0.00 83 1015.1
20260905234316 82 73 6.0 10.0 0.00 0.00 0.00 82 1015.1
20260905233811 82 105 4.0 13.0 0.00 0.00 0.00 82 1015.0
20260905233306 83 73 4.0 11.0 0.00 0.00 0.00 81 1015.1
20260905232804 83 60 5.0 10.0 0.00 0.00 0.00 81 1014.9
20260905232300 83 59 2.0 19.0 0.00 0.00 0.00 81 1014.9
20260905231751 84 59 5.0 12.0 0.00 0.00 0.00 81 1014.9
20260905231246 84 77 5.0 10.0 0.00 0.00 0.00 81 1014.9
20260905230742 85 105 1.0 7.0 0.00 0.00 0.00 80 1014.7
20260905230240 84 74 4.0 9.0 0.00 0.00 0.00 80 1014.9
20260905225740 85 242 1.0 9.0 0.00 0.00 0.00 80 1014.8
20260905225235 85 358 4.0 8.0 0.00 0.00 0.00 80 1014.8
20260905224734 85 350 1.0 10.0 0.00 0.00 0.00 80 1015.2
20260905224230 86 334 6.0 9.0 0.00 0.00 0.00 79 1015.1
20260905223726 85 39 3.0 10.0 0.00 0.00 0.00 80 1015.0
20260905223223 86 76 3.0 11.0 0.00 0.00 0.00 79 1015.0
20260905222718 86 53 4.0 11.0 0.00 0.00 0.00 79 1015.0
20260905222217 86 19 6.0 7.0 0.00 0.00 0.00 78 1014.9
20260905221713 86 340 2.0 8.0 0.00 0.00 0.00 77 1014.7
20260905221210 87 41 4.0 8.0 0.00 0.00 0.00 77 1014.9
20260905220705 86 0 6.0 10.0 0.00 0.00 0.00 77 1014.7
20260905220201 86 66 3.0 10.0 0.00 0.00 0.00 77 1014.7
20260905215700 86 4 4.0 11.0 0.00 0.00 0.00 78 1014.5
20260905215156 86 32 7.0 11.0 0.00 0.00 0.00 78 1014.9
20260905214652 86 357 4.0 8.0 0.00 0.00 0.00 78 1014.7
20260905214147 86 72 3.0 10.0 0.00 0.00 0.00 78 1015.0
20260905213642 87 55 6.0 8.0 0.00 0.00 0.00 77 1014.9
20260905213138 88 35 4.0 8.0 0.00 0.00 0.00 76 1014.9
20260905212633 87 355 1.0 8.0 0.00 0.00 0.00 78 1014.7
20260905212132 89 54 4.0 10.0 0.00 0.00 0.00 76 1014.6
20260905211627 88 34 4.0 10.0 0.00 0.00 0.00 77 1014.6
20260905211123 88 43 4.0 14.0 0.00 0.00 0.00 77 1014.6
20260905210619 89 54 5.0 11.0 0.00 0.00 0.00 76 1014.3
20260905210114 89 72 6.0 12.0 0.00 0.00 0.00 76 1014.3
20260905205613 90 15 4.0 8.0 0.00 0.00 0.00 75 1014.5
20260905205112 90 65 11.0 13.0 0.00 0.00 0.00 75 1014.5
20260905204606 90 1 3.0 12.0 0.00 0.00 0.00 75 1014.8
20260905204101 90 331 0.0 11.0 0.00 0.00 0.00 76 1014.6
20260905203556 90 25 4.0 11.0 0.00 0.00 0.00 77 1014.6
20260905203052 89 91 5.0 12.0 0.00 0.00 0.00 77 1014.8
20260905202547 90 39 4.0 12.0 0.00 0.00 0.00 75 1014.6
20260905202042 92 349 1.0 6.0 0.00 0.00 0.00 72 1014.8
20260905201538 91 48 3.0 7.0 0.00 0.00 0.00 73 1014.6
20260905201037 92 32 4.0 14.0 0.00 0.00 0.00 72 1014.8
20260905200533 92 75 6.0 9.0 0.00 0.00 0.00 72 1014.8
20260905200032 91 41 1.0 6.0 0.00 0.00 0.00 73 1014.6
20260905195526 91 324 3.0 12.0 0.00 0.00 0.00 71 1014.7
20260905195022 93 39 3.0 7.0 0.00 0.00 0.00 68 1014.4
20260905194521 93 55 4.0 6.0 0.00 0.00 0.00 68 1014.7
20260905194015 93 65 7.0 11.0 0.00 0.00 0.00 68 1014.9
20260905193510 93 57 3.0 9.0 0.00 0.00 0.00 70 1014.8
20260905193005 92 292 2.0 10.0 0.00 0.00 0.00 70 1014.5
20260905192500 93 47 4.0 10.0 0.00 0.00 0.00 68 1014.8
20260905191956 93 357 0.0 4.0 0.00 0.00 0.00 69 1014.8
20260905191455 92 38 1.0 5.0 0.00 0.00 0.00 70 1014.8
20260905190954 92 287 4.0 7.0 0.00 0.00 0.00 70 1014.9
20260905190452 94 68 3.0 6.0 0.00 0.00 0.00 68 1014.9
20260905185951 94 32 2.0 4.0 0.00 0.00 0.00 68 1014.8
20260905185447 92 289 2.0 5.0 0.00 0.00 0.00 72 1014.9
20260905184945 90 53 2.0 7.0 0.00 0.00 0.00 74 1015.1
20260905184440 91 21 2.0 6.0 0.00 0.00 0.00 72 1014.9
20260905183938 93 76 3.0 6.0 0.00 0.00 0.00 70 1015.0
20260905183433 92 350 1.0 5.0 0.00 0.00 0.00 70 1014.9
20260905182928 93 37 1.0 11.0 0.00 0.00 0.00 69 1015.0
20260905182427 92 13 3.0 7.0 0.00 0.00 0.00 70 1014.9
20260905181923 93 30 0.0 5.0 0.00 0.00 0.00 71 1014.9
20260905181418 92 314 2.0 6.0 0.00 0.00 0.00 71 1014.9
20260905180918 92 46 2.0 4.0 0.00 0.00 0.00 71 1015.0
20260905180413 92 340 1.0 5.0 0.00 0.00 0.00 71 1015.0
20260905175913 93 243 3.0 6.0 0.00 0.00 0.00 70 1015.2
20260905175412 92 347 2.0 4.0 0.00 0.00 0.00 70 1015.3
20260905174907 92 41 3.0 8.0 0.00 0.00 0.00 71 1015.1
20260905174403 92 320 2.0 7.0 0.00 0.00 0.00 70 1015.0
20260905173858 91 67 3.0 7.0 0.00 0.00 0.00 71 1015.4
20260905173355 92 6 0.0 5.0 0.00 0.00 0.00 71 1015.2
20260905172849 94 43 9.0 9.0 0.00 0.00 0.00 68 1015.4
20260905172347 93 145 3.0 4.0 0.00 0.00 0.00 70 1015.1
20260905171843 91 19 1.0 5.0 0.00 0.00 0.00 71 1015.4
20260905171340 92 1 3.0 8.0 0.00 0.00 0.00 70 1015.6
20260905170836 91 116 2.0 8.0 0.00 0.00 0.00 72 1015.6
20260905170332 93 204 0.0 7.0 0.00 0.00 0.00 70 1015.4
20260905165831 92 105 3.0 7.0 0.00 0.00 0.00 72 1015.6
20260905165327 91 105 3.0 7.0 0.00 0.00 0.00 72 1015.6
20260905164826 91 17 1.0 5.0 0.00 0.00 0.00 72 1015.5
20260905164321 91 357 0.0 7.0 0.00 0.00 0.00 73 1015.7
20260905163817 92 20 3.0 6.0 0.00 0.00 0.00 72 1015.5
20260905163313 91 58 4.0 5.0 0.00 0.00 0.00 72 1015.6
20260905162809 90 55 4.0 7.0 0.00 0.00 0.00 73 1015.5
20260905162309 91 114 1.0 7.0 0.00 0.00 0.00 72 1015.6
20260905161803 90 287 2.0 8.0 0.00 0.00 0.00 73 1015.5
20260905161303 91 79 2.0 7.0 0.00 0.00 0.00 72 1015.1
20260905160801 89 17 3.0 7.0 0.00 0.00 0.00 75 1015.6
20260905160255 89 52 4.0 6.0 0.00 0.00 0.00 74 1015.4
20260905155750 90 67 5.0 10.0 0.00 0.00 0.00 73 1015.3
20260905155249 89 105 0.0 9.0 0.00 0.00 0.00 75 1015.2
20260905154743 89 70 5.0 10.0 0.00 0.00 0.00 74 1015.4
20260905154239 89 85 5.0 12.0 0.00 0.00 0.00 75 1015.4
20260905153735 89 67 5.0 8.0 0.00 0.00 0.00 75 1015.3
20260905153230 89 52 3.0 7.0 0.00 0.00 0.00 75 1015.4